This demonstration page uses our WeatherBlox Daily Observations layout. Learn more.

38.80484, -77.04692

Hourly Observations for January 16, 2019

Temp ( °F °C ) Dew Point ( °F °C ) Humidity (%) Winds ( mph kmh ) Pressure ( in mb ) Visibility ( mi km ) Precip ( " mm )
12:52 am 00:52 Mostly Clear 30 -1.1 22 -5.6 72 72 SSW 6 9 30.15 1021 10 16.09344 0 0
1:52 am 01:52 Clear 28 -2.2 22 -5.6 78 78 SW 3 6 30.15 1021 10 16.09344 0 0
2:52 am 02:52 Clear 27 -2.8 21 -6.1 78 78 SW 5 7 30.12 1020 10 16.09344 0 0
3:52 am 03:52 Mostly Clear 27 -2.8 22 -5.6 81 81 WSW 3 6 30.12 1020 9 14.484096 0 0
4:52 am 04:52 Partly Cloudy 24 -4.4 20 -6.7 84 84 Calm 30.12 1020 7 11.265408 0 0
5:52 am 05:52 Partly Cloudy 26 -3.3 21 -6.1 81 81 Calm 30.09 1019 8 12.874752 0 0
6:52 am 06:52 Mostly Clear 27 -2.8 22 -5.6 81 81 N 3 6 30.12 1020 10 16.09344 0 0
7:52 am 07:52 Mostly Sunny 28 -2.2 23 -5 81 81 NNE 3 6 30.12 1020 9 14.484096 0 0
8:52 am 08:52 Partly Cloudy 30 -1.1 26 -3.3 85 85 Calm 30.15 1021 7 11.265408 0 0
9:36 am 09:36 Mostly Cloudy 32 0 25 -3.9 75 75 E 3 6 30.18 1022 9 14.484096 0 0
9:52 am 09:52 Mostly Cloudy 33 0.6 25 -3.9 72 72 Calm 30.18 1022 8 12.874752 0 0
10:52 am 10:52 Mostly Cloudy 40 4.4 27 -2.8 60 60 WNW 15 24 30.18 1022 10 16.09344 0 0
11:52 am 11:52 Cloudy 40 4.4 26 -3.3 58 58 NW 8 13 30.15 1021 10 16.09344 0 0
12:52 pm 12:52 Cloudy 41 5 26 -3.3 55 55 NW 18 30 30.15 1021 10 16.09344 0 0
1:52 pm 13:52 Mostly Cloudy 42 5.6 25 -3.9 51 51 WNW 16 26 30.12 1020 10 16.09344 0 0
2:52 pm 14:52 Mostly Cloudy 44 6.7 26 -3.3 49 49 NW 13 20 30.15 1021 10 16.09344 0 0
3:52 pm 15:52 Partly Cloudy 43 6.1 26 -3.3 51 51 NW 15 24 30.15 1021 10 16.09344 0 0
4:52 pm 16:52 Mostly Cloudy 42 5.6 26 -3.3 53 53 NW 10 17 30.18 1022 10 16.09344 0 0
5:52 pm 17:52 Mostly Cloudy 42 5.6 25 -3.9 51 51 WNW 10 17 30.21 1023 10 16.09344 0 0
6:52 pm 18:52 Partly Cloudy 41 5 25 -3.9 53 53 NW 13 20 30.24 1024 10 16.09344 0 0
7:52 pm 19:52 Mostly Cloudy 42 5.6 25 -3.9 51 51 NW 13 20 30.24 1024 10 16.09344 0 0
8:52 pm 20:52 Cloudy 41 5 26 -3.3 55 55 NNW 8 13 30.27 1025 10 16.09344 0 0
9:52 pm 21:52 Cloudy 40 4.4 26 -3.3 58 58 NNW 8 13 30.27 1025 10 16.09344 0 0
10:52 pm 22:52 Cloudy 39 3.9 25 -3.9 57 57 NNW 7 11 30.3 1026 10 16.09344 0 0
11:52 pm 23:52 Cloudy 40 4.4 23 -5 51 51 NW 12 19 30.3 1026 10 16.09344 0 0

Powered by AerisWeather